Weather History for Suffolk, VA

Change the Weather History Date:

Wednesday, March 6, 2013

  Actual Average Record
Temperature  
Mean Temperature 42 °F -  
Max Temperature 48 °F 56 °F 82 °F (1967)
Min Temperature 35 °F 37 °F 19 °F (1960)
Degree Days  
Heating Degree Days 24    
Moisture  
Dew Point 39 °F    
Average Humidity 95    
Maximum Humidity 100    
Minimum Humidity 81    
Precipitation  
Precipitation 0.64 in - - ()
Sea Level Pressure  
Sea Level Pressure 29.55 in    
Wind  
Wind Speed 13 mph (NW)    
Max Wind Speed 24 mph    
Max Gust Speed 37 mph    
Visibility 7 miles    
Events Fog , Rain , Snow , Thunderstorm    
Averages and records for this station are not official NWS values.
T = Trace of Precipitation, MM = Missing Value Source: NWS Daily Summary

Daily Weather History Graph

Daily Weather History Graph

Search for Another Location

Airport:

Trip Planner

Search our weather history database for the weather conditions in past years. The results will help you decide how hot, cold, wet, or windy it might be!

Date:

Astronomy

Mar. 06, 2013 Rise Set
Actual Time 6:29 AM EST 6:05 PM EST
Civil Twilight 6:04 AM EST 6:31 PM EST
Nautical Twilight 5:34 AM EST 7:01 PM EST
Astronomical Twilight 5:04 AM EST 7:31 PM EST
Moon 2:30 AM EST (3/6) 12:51 PM EST (3/6)
Length of Visible Light 12h 27m
Length of Day
11h 35m
Waning Crescent, 30% of the Moon is Illuminated
Mar 6
Waning Crescent
Mar 11
New
Mar 19
First Quarter
Mar 27
Full
Apr 3
Last Quarter

Hourly Weather History & Observations

Time (EST) Temp. Windchill Dew Point Humidity Pressure Visibility Wind Dir Wind Speed Gust Speed Precip Events Conditions
12:15 AM 42.8 °F 37.0 °F 42.8 °F 100% 29.68 in 5.0 mi East 10.4 mph 18.4 mph 0.06 in Rain Rain
12:35 AM 42.8 °F 36.2 °F 42.8 °F 100% 29.64 in 4.0 mi East 12.7 mph 17.3 mph 0.18 in   Overcast
12:55 AM 44.6 °F 39.2 °F 44.6 °F 100% 29.64 in 5.0 mi East 10.4 mph 18.4 mph 0.29 in Rain Rain
1:15 AM 44.6 °F 38.8 °F 44.6 °F 100% 29.62 in 10.0 mi East 11.5 mph 17.3 mph 0.07 in Rain Rain
1:35 AM 44.6 °F 40.2 °F 44.6 °F 100% 29.62 in 7.0 mi East 8.1 mph - 0.12 in Rain Rain
1:55 AM 44.6 °F 41.4 °F 44.6 °F 100% 29.61 in 10.0 mi ESE 5.8 mph 16.1 mph 0.14 in   Drizzle
2:15 AM 46.4 °F 41.9 °F 46.4 °F 100% 29.57 in 10.0 mi ENE 9.2 mph - N/A Rain Light Rain
2:35 AM 46.4 °F 42.4 °F 46.4 °F 100% 29.56 in 10.0 mi North 8.1 mph - N/A Rain Light Rain
2:55 AM 46.4 °F 41.5 °F 46.4 °F 100% 29.53 in 10.0 mi NE 10.4 mph - N/A Rain Light Rain
3:15 AM 46.4 °F 41.9 °F 46.4 °F 100% 29.51 in 10.0 mi ENE 9.2 mph - N/A   Overcast
3:35 AM 46.4 °F 42.4 °F 46.4 °F 100% 29.49 in 10.0 mi ENE 8.1 mph - N/A   Overcast
3:55 AM 46.4 °F 42.4 °F 46.4 °F 100% 29.47 in 10.0 mi East 8.1 mph - N/A   Overcast
4:15 AM 46.4 °F 42.4 °F 46.4 °F 100% 29.46 in 10.0 mi East 8.1 mph - N/A   Overcast
4:35 AM 46.4 °F 43.5 °F 46.4 °F 100% 29.45 in 5.0 mi East 5.8 mph - N/A   Overcast
4:55 AM 46.4 °F 42.4 °F 46.4 °F 100% 29.45 in 2.5 mi ENE 8.1 mph - N/A   Overcast
5:15 AM 46.4 °F - 46.4 °F 100% 29.44 in 2.0 mi Calm Calm - N/A   Overcast
5:35 AM 46.4 °F 45.2 °F 46.4 °F 100% 29.42 in 1.0 mi ENE 3.5 mph - N/A   Overcast
5:55 AM 46.4 °F - 46.4 °F 100% 29.41 in 0.5 mi Calm Calm - N/A Fog Fog
6:55 AM 48.2 °F - 48.2 °F 100% 29.40 in 10.0 mi SW 9.2 mph - N/A   Overcast
7:15 AM 46.4 °F 40.4 °F 46.4 °F 100% 29.40 in 5.0 mi WSW 13.8 mph - N/A   Overcast
7:35 AM 42.8 °F 34.0 °F 42.8 °F 100% 29.41 in 10.0 mi WSW 20.7 mph 27.6 mph N/A   Overcast
7:55 AM 42.8 °F 34.5 °F 41.0 °F 93% 29.42 in 10.0 mi WSW 18.4 mph 24.2 mph N/A   Overcast
8:15 AM 39.2 °F 29.3 °F 39.2 °F 100% 29.43 in 10.0 mi WSW 20.7 mph 26.5 mph N/A Thunderstorm Overcast
8:35 AM 39.2 °F 30.2 °F 37.4 °F 93% 29.44 in 10.0 mi WSW 17.3 mph 27.6 mph N/A   Overcast
8:55 AM 37.4 °F 27.2 °F 35.6 °F 93% 29.44 in 10.0 mi WSW 19.6 mph 26.5 mph N/A   Overcast
9:15 AM 37.4 °F 26.6 °F 35.6 °F 93% 29.43 in 10.0 mi WSW 21.9 mph 27.6 mph N/A   Overcast
9:35 AM 37.4 °F 27.8 °F 35.6 °F 93% 29.42 in 10.0 mi WSW 17.3 mph 28.8 mph N/A   Overcast
9:55 AM 39.2 °F 30.2 °F 35.6 °F 87% 29.42 in 10.0 mi WSW 17.3 mph 25.3 mph N/A   Overcast
10:15 AM 39.2 °F 30.2 °F 35.6 °F 87% 29.42 in 10.0 mi WSW 17.3 mph 31.1 mph N/A   Overcast
10:35 AM 39.2 °F 30.2 °F 35.6 °F 87% 29.41 in 10.0 mi WSW 17.3 mph 28.8 mph N/A   Overcast
10:55 AM 39.2 °F 30.8 °F 35.6 °F 87% 29.40 in 7.0 mi WSW 15.0 mph 31.1 mph N/A   Light Drizzle
11:15 AM 37.4 °F 27.8 °F 35.6 °F 93% 29.40 in 7.0 mi WSW 17.3 mph 23.0 mph N/A Rain Light Rain
11:35 AM 37.4 °F 26.9 °F 35.6 °F 93% 29.38 in 5.0 mi SW 20.7 mph 28.8 mph 0.01 in   Light Drizzle
11:55 AM 37.4 °F 26.1 °F 35.6 °F 93% 29.38 in 4.0 mi WSW 24.2 mph - 0.01 in Rain Light Rain
12:15 PM 37.4 °F 27.2 °F 35.6 °F 93% 29.37 in 2.5 mi WSW 19.6 mph 27.6 mph N/A   Light Drizzle
12:35 PM 37.4 °F 27.8 °F 35.6 °F 93% 29.36 in 2.0 mi WSW 17.3 mph 25.3 mph N/A Rain Light Rain
12:55 PM 35.6 °F 25.2 °F 35.6 °F 100% 29.36 in 1.8 mi WSW 18.4 mph 25.3 mph N/A Snow Light Snow
1:15 PM 35.6 °F 25.9 °F 35.6 °F 100% 29.35 in 1.5 mi West 16.1 mph 23.0 mph 0.01 in Snow Light Snow
1:35 PM 35.6 °F 24.5 °F 35.6 °F 100% 29.35 in 1.2 mi West 20.7 mph 29.9 mph 0.03 in Snow Light Snow
1:55 PM 37.4 °F 28.2 °F 35.6 °F 93% 29.36 in 1.0 mi West 16.1 mph 23.0 mph 0.03 in   Drizzle
2:15 PM 37.4 °F 26.6 °F 37.4 °F 100% 29.38 in 2.5 mi WNW 21.9 mph 27.6 mph 0.01 in   Drizzle
2:35 PM 37.4 °F 27.5 °F 37.4 °F 100% 29.39 in 2.0 mi WNW 18.4 mph 28.8 mph 0.02 in   Drizzle
2:55 PM 37.4 °F 27.2 °F 35.6 °F 93% 29.41 in 1.5 mi WNW 19.6 mph 27.6 mph 0.04 in Rain Light Rain
3:15 PM 35.6 °F 25.9 °F 35.6 °F 100% 29.43 in 1.8 mi NW 16.1 mph 27.6 mph 0.04 in Snow Light Snow
3:35 PM 37.4 °F 26.1 °F 35.6 °F 93% 29.45 in 4.0 mi NW 24.2 mph 36.8 mph 0.05 in Snow Light Snow
3:55 PM 37.4 °F 27.8 °F 35.6 °F 93% 29.48 in 2.0 mi NW 17.3 mph 29.9 mph 0.07 in   Overcast
4:15 PM 37.4 °F 27.2 °F 35.6 °F 93% 29.50 in 2.0 mi NW 19.6 mph 29.9 mph 0.01 in   Drizzle
4:35 PM 37.4 °F 27.2 °F 37.4 °F 100% 29.53 in 7.0 mi NW 19.6 mph 31.1 mph 0.01 in Rain Light Rain
5:15 PM 37.4 °F 28.5 °F 37.4 °F 100% 29.58 in 5.0 mi NW 15.0 mph 32.2 mph 0.02 in Rain Light Rain
5:35 PM 37.4 °F 26.1 °F 37.4 °F 100% 29.61 in 4.0 mi NW 24.2 mph 33.4 mph 0.03 in Rain Light Rain
5:55 PM 37.4 °F 26.6 °F 37.4 °F 100% 29.64 in 10.0 mi NW 21.9 mph 31.1 mph 0.03 in   Light Drizzle
6:15 PM 39.2 °F 29.8 °F 37.4 °F 93% 29.67 in 10.0 mi NNW 18.4 mph 29.9 mph N/A Rain Rain
7:15 PM 39.2 °F 29.8 °F 37.4 °F 93% 29.74 in 10.0 mi NNW 18.4 mph 31.1 mph N/A Rain Rain
7:35 PM 39.2 °F 29.8 °F 37.4 °F 93% 29.76 in 10.0 mi NNW 18.4 mph 29.9 mph N/A   Drizzle
7:55 PM 39.2 °F 29.3 °F 37.4 °F 93% 29.77 in 10.0 mi NNW 20.7 mph 31.1 mph N/A   Drizzle
8:15 PM 39.2 °F 30.2 °F 37.4 °F 93% 29.78 in 10.0 mi NW 17.3 mph 33.4 mph 0.01 in Rain Light Rain
8:35 PM 39.2 °F 30.5 °F 37.4 °F 93% 29.80 in 10.0 mi NNW 16.1 mph 27.6 mph 0.01 in Rain Light Rain
8:55 PM 39.2 °F 30.8 °F 37.4 °F 93% 29.82 in 10.0 mi NW 15.0 mph 35.7 mph 0.01 in   Light Drizzle
9:15 PM 39.2 °F 31.2 °F 37.4 °F 93% 29.83 in 10.0 mi NNW 13.8 mph 31.1 mph 0.01 in   Overcast
9:35 PM 41.0 °F 33.1 °F 37.4 °F 87% 29.84 in 10.0 mi NW 15.0 mph 25.3 mph 0.01 in   Overcast
9:55 PM 41.0 °F 32.5 °F 37.4 °F 87% 29.85 in 10.0 mi NNW 17.3 mph 27.6 mph 0.01 in   Overcast
10:15 PM 41.0 °F 33.1 °F 37.4 °F 87% 29.86 in 10.0 mi NNW 15.0 mph 27.6 mph N/A   Overcast
10:35 PM 41.0 °F 32.8 °F 37.4 °F 87% 29.87 in 10.0 mi NW 16.1 mph 24.2 mph N/A   Overcast
10:55 PM 41.0 °F 33.5 °F 35.6 °F 81% 29.87 in 10.0 mi NNW 13.8 mph 27.6 mph N/A   Mostly Cloudy
11:15 PM 41.0 °F 33.1 °F 35.6 °F 81% 29.87 in 10.0 mi NW 15.0 mph 24.2 mph N/A   Scattered Clouds
11:35 PM 41.0 °F 32.8 °F 35.6 °F 81% 29.88 in 10.0 mi NNW 16.1 mph 24.2 mph N/A   Scattered Clouds
11:55 PM 41.0 °F 32.8 °F 35.6 °F 81% 29.88 in 10.0 mi NW 16.1 mph 24.2 mph N/A   Mostly Cloudy